Massena, NY

4:47 AM EST on January 17, 2017 (GMT -0500)
Massena International-Richards

Weather History for KMSS - February, 2014

Change the Weather History Date:

Thursday, February 6, 2014

  Actual Average Record
Temperature  
Mean Temperature 0 °F 16 °F  
Max Temperature 17 °F 26 °F 46 °F (1953)
Min Temperature -17 °F 5 °F -33 °F (1993)
Degree Days  
Heating Degree Days 65 49  
Month to date heating degree days 294 298  
Since 1 July heating degree days 5076 4961  
Cooling Degree Days 0 0  
Month to date cooling degree days 0  
Year to date cooling degree days 0  
Moisture  
Dew Point 2 °F    
Average Humidity 73    
Maximum Humidity 87    
Minimum Humidity 58    
Precipitation  
Precipitation 0.01 in 0.06 in 0.45 in (1963)
Month to date precipitation 0.47 0.35  
Year to date precipitation 1.93 2.53  
Sea Level Pressure  
Sea Level Pressure 30.23 in    
Wind  
Wind Speed 9 mph (SW)    
Max Wind Speed 21 mph    
Max Gust Speed 26 mph    
Visibility 8 miles    
Events Snow    
T = Trace of Precipitation, MM = Missing Value Source: NWS Daily Summary

Daily Weather History Graph

Daily Weather History Graph

Search for Another Location

Airport or City:

Trip Planner

Search our weather history database for the weather conditions in past years. The results will help you decide how hot, cold, wet, or windy it might be!

Date:

Astronomy

Feb. 06, 2014 Rise Set
Actual Time 7:12 AM EST 5:14 PM EST
Civil Twilight 6:42 AM EST 5:45 PM EST
Nautical Twilight 6:07 AM EST 6:20 PM EST
Astronomical Twilight 5:33 AM EST 6:54 PM EST
Moon 10:44 AM EST (2/6) 12:25 AM EST (2/6)
Length of Visible Light 11h 03m
Length of Day
10h 01m
Waxing Crescent, 49% of the Moon is Illuminated
Feb 6
Waxing Crescent
Feb 6
First Quarter
Feb 14
Full
Feb 22
Last Quarter
Mar 1
New

Hourly Weather History & Observations

Time (EST) Temp. Windchill Dew Point Humidity Pressure Visibility Wind Dir Wind Speed Gust Speed Precip Events Conditions
12:53 AM -4.0 °F -12.4 °F -9.0 °F 79% 30.24 in 10.0 mi WSW 3.5 mph - N/A   Clear
1:53 AM -6.0 °F -16.9 °F -9.0 °F 87% 30.26 in 10.0 mi SW 4.6 mph - N/A   Clear
2:53 AM -7.1 °F -15.9 °F -11.0 °F 83% 30.28 in 10.0 mi West 3.5 mph - N/A   Clear
3:53 AM -9.9 °F - -15.0 °F 78% 30.29 in 10.0 mi Calm Calm - N/A   Clear
4:53 AM -9.0 °F -20.4 °F -14.1 °F 79% 30.31 in 10.0 mi SSW 4.6 mph - N/A   Clear
5:53 AM -11.9 °F -21.5 °F -16.1 °F 82% 30.33 in 10.0 mi SW 3.5 mph - N/A   Clear
6:53 AM -9.9 °F - -14.1 °F 82% 30.34 in 10.0 mi Calm Calm - N/A   Clear
7:53 AM -9.9 °F -19.2 °F -13.0 °F 86% 30.35 in 10.0 mi SW 3.5 mph - N/A   Clear
8:53 AM -0.9 °F -14.1 °F -6.0 °F 79% 30.36 in 10.0 mi SW 6.9 mph - N/A   Clear
9:53 AM 1.9 °F -10.6 °F -2.9 °F 80% 30.36 in 10.0 mi WSW 6.9 mph - N/A   Scattered Clouds
10:53 AM 5.0 °F -8.1 °F -0.9 °F 76% 30.36 in 10.0 mi SW 8.1 mph - N/A   Clear
11:53 AM 10.0 °F -5.2 °F -0.0 °F 64% 30.33 in 10.0 mi SW 12.7 mph - N/A   Clear
12:53 PM 12.0 °F -5.1 °F 1.0 °F 61% 30.30 in 10.0 mi SW 17.3 mph - N/A   Clear
1:53 PM 14.0 °F -1.4 °F 1.0 °F 56% 30.27 in 10.0 mi SSW 15.0 mph 23.0 mph N/A   Clear
2:53 PM 16.0 °F 0.6 °F 3.0 °F 57% 30.27 in 10.0 mi SW 16.1 mph 20.7 mph N/A   Scattered Clouds
3:53 PM 16.0 °F 0.1 °F 3.9 °F 59% 30.25 in 10.0 mi SSW 17.3 mph - N/A   Partly Cloudy
4:53 PM 15.1 °F 1.8 °F 3.9 °F 61% 30.23 in 10.0 mi SSW 11.5 mph - N/A   Partly Cloudy
5:53 PM 12.9 °F 1.6 °F 3.9 °F 67% 30.22 in 10.0 mi SSW 8.1 mph - N/A   Mostly Cloudy
6:53 PM 15.1 °F 3.3 °F 7.0 °F 70% 30.21 in 10.0 mi SSW 9.2 mph - N/A   Overcast
7:29 PM 15.1 °F 4.2 °F 8.1 °F 74% 30.17 in 2.5 mi SSW 8.1 mph - 0.00 in Snow Light Snow
7:45 PM 15.1 °F 2.5 °F 9.0 °F 77% 30.16 in 1.8 mi South 10.4 mph - 0.00 in Snow Light Snow
7:53 PM 15.1 °F 3.3 °F 10.0 °F 80% 30.19 in 1.8 mi SSW 9.2 mph - 0.00 in Snow Light Snow
8:03 PM 15.1 °F 3.3 °F 10.0 °F 80% 30.15 in 2.5 mi SSW 9.2 mph - 0.00 in Snow Light Snow
8:19 PM 15.1 °F 2.5 °F 10.0 °F 80% 30.14 in 1.8 mi SSW 10.4 mph - 0.00 in Snow Light Snow
8:26 PM 15.1 °F 2.5 °F 10.0 °F 80% 30.14 in 3.0 mi SSW 10.4 mph - 0.00 in Snow Light Snow
8:53 PM 17.1 °F 5.0 °F 10.0 °F 74% 30.17 in 9.0 mi SSW 10.4 mph - 0.00 in   Overcast
9:17 PM 17.1 °F 3.0 °F 10.0 °F 74% 30.13 in 4.0 mi SSW 13.8 mph - 0.00 in Snow Light Snow
9:25 PM 17.1 °F 5.0 °F 10.9 °F 77% 30.13 in 3.0 mi SSW 10.4 mph - 0.00 in Snow Light Snow
9:53 PM 17.1 °F 3.6 °F 10.9 °F 77% 30.16 in 8.0 mi SSW 12.7 mph - 0.00 in   Overcast
10:19 PM 17.1 °F 1.0 °F 10.9 °F 77% 30.13 in 6.0 mi SW 18.4 mph - 0.01 in Snow Light Snow
10:53 PM 17.1 °F 3.6 °F 10.0 °F 74% 30.16 in 10.0 mi SW 12.7 mph - 0.01 in   Overcast
11:34 PM 16.0 °F 2.3 °F 10.0 °F 77% 30.14 in 2.0 mi SW 12.7 mph - 0.00 in Snow Light Snow
11:44 PM 16.0 °F 4.4 °F 10.0 °F 77% 30.14 in 6.0 mi SW 9.2 mph - 0.00 in Snow Light Snow
11:53 PM 16.0 °F 3.6 °F 10.0 °F 77% 30.17 in 10.0 mi WSW 10.4 mph - 0.00 in   Overcast